Miscellaneous Local Product
Issued by NWS Hastings, NE

Home | Current Version | Previous Version | Graphics & Text | Print | Product List | Glossary On
Versions: 1 2 3 4 5 6 7 8 9 10 11 12 13 14 15 16 17 18 19 20 21 22 23 24 25 26 27 28 29 30 31 32 33 34 35 36 37 38 39 40 41 42 43 44 45 46 47 48 49 50
000
AXUS43 KGID 210202
MISGRI

GID CWA HOURLY WEATHER ROUNDUP
NATIONAL WEATHER SERVICE HASTINGS NE
900 PM CDT MON OCT 20 2014

NOTE: "FAIR" INDICATES FEW OR NO CLOUDS BELOW 12,000 FEET WITH NO
SIGNIFICANT WEATHER AND/OR OBSTRUCTIONS TO VISIBILITY.

...SOUTH CENTRAL NEBRASKA...

CITY           SKY/WX    TMP DP  RH WIND       PRES   REMARKS
GRAND ISLAND   CLEAR     51  42  71 SE7       30.07S
HASTINGS       CLEAR     53  41  63 CALM      30.06S
KEARNEY        CLEAR     55  39  54 SE3       30.07S
ORD            CLEAR     50  40  68 CALM      30.04S
YORK           CLEAR     57  39  51 E3        30.07R
AURORA         CLEAR     51  37  59 CALM      30.07S
LEXINGTON      CLEAR     58  42  56 S5        30.06S
HOLDREGE       CLEAR     57  40  53 CALM      30.07S
HEBRON         CLEAR     51  41  69 CALM      30.06S

...NEBRASKA PANHANDLE...

CITY           SKY/WX    TMP DP  RH WIND       PRES   REMARKS
CHADRON        CLEAR     63  40  42 S14       29.93R
ALLIANCE       CLEAR     58  40  51 S14       30.00S
SCOTTSBLUFF    CLEAR     56  39  53 E9        29.99R
SIDNEY         CLEAR     60  38  43 S14       30.06R

...WESTERN AND NORTH CENTRAL NEBRASKA...

CITY           SKY/WX    TMP DP  RH WIND       PRES   REMARKS
VALENTINE      CLEAR     63  39  41 S12       29.99S
AINSWORTH      CLEAR     57  41  55 S9        30.01F
ONEILL         CLEAR     58  42  55 SE6       30.04S
BROKEN BOW     CLEAR     46  39  76 CALM      30.05S
IMPERIAL       CLEAR     62  36  37 S12       30.06S
NORTH PLATTE   CLEAR     52  39  61 SE6       30.05S
MCCOOK         CLEAR     60  40  47 S5        30.07R

...EASTERN NEBRASKA...

CITY           SKY/WX    TMP DP  RH WIND       PRES   REMARKS
NORFOLK        CLEAR     49  36  61 CALM      30.05R
SO SIOUX CITY  CLEAR     45  39  79 CALM      30.04S
TEKAMAH        CLEAR     49  40  71 W3        30.04S
COLUMBUS       CLEAR     52  36  54 CALM      30.07S
ALBION         CLEAR     49  38  66 CALM      30.06S
OMAHA EPPLEY   CLEAR     55  44  66 CALM      30.05S
OFFUTT AFB     CLEAR     47  46  99 CALM      30.04S
MILLARD        CLEAR     51  45  78 CALM      30.05S
LINCOLN        CLEAR     52  38  58 CALM      30.07S
NEBRASKA CITY  CLEAR     62  30  30 CALM      30.06S
BEATRICE       CLEAR     53  39  58 CALM      30.06R
FALLS CITY     CLEAR     57  36  45 CALM      30.05S

...NORTHERN KANSAS...

CITY           SKY/WX    TMP DP  RH WIND       PRES   REMARKS
GOODLAND       CLEAR     56  39  53 S12       30.11S
HILL CITY      CLEAR     56  41  57 CALM      30.08R
NORTON         CLEAR     61  36  39 SE6       30.07S
PHILLIPSBURG   CLEAR     59  45  58 E3        30.07S
BELOIT         CLEAR     52  45  76 CALM      30.05S
HAYS           CLEAR     57  43  58 SE5       30.08S
RUSSELL        CLEAR     59  45  59 SE9       30.07R
CONCORDIA      CLEAR     56  45  66 S7        30.06S
SALINA         CLEAR     57  47  69 SE5       30.07R
TOPEKA         CLEAR     51  46  83 CALM      30.05S



USA.gov is the U.S. government's official web portal to all federal, state and local government web resources and services.